Easy to use

vPilot, FSInn, and Squawkbox

VATSIM has 3 different client software available to choose by the user. The 3 different softwares are relatively easy to use and enjoyable to the user's experience. The software's operating manual is available to download in case user has not been able to fully operate the software to get a real working pilot experience.

Radar that functions similarly to real ATC's radar

EuroScope & VRC

VATSIM uses an advanced radar client simulating real ATC experience in the real world. Although it said to be advanced, both radar clients are very easy to use. Another interesting point is VATSIM has the technology to break the limit between simulation and real life experience.

With VATSIM, you can learn more about aviation.
You can also discuss with other aviation geek.

Unforgettable Experience

Current Activity

No controllers and pilot currently online!

*This information may not be up to date.

METAR

Airport Name - Location (ICAO) METAR
Sultan Hasanuddin - Makassar (WAAA)METAR WAAA 230730Z 08004KT 010V160 9999 SCT018 29/26 Q1008|NOSIG=
Ngurah Rai - Denpasar (WADD)METAR WADD 230730Z 27015KT 9999 FEW016 30/24 Q1006|NOSIG=
Ahmad Yani - Semarang (WAHS)METAR WAHS 230730Z 29010KT 8000 SCT014 30/24 Q1008=
Juanda - Surabaya (WARR)METAR WARR 230730Z 29010KT 8000 -TSRA BKN018CB 25/23 Q1008|TEMPO TL0800 6000 -TSRA=
Soekarno Hatta - Jakarta (WIII)METAR WIII 230730Z 32007KT 9000 BKN019 29/23 Q1009|NOSIG=
Halim Perdanakusuma - Jakarta (WIHH)METAR WIHH 230700Z 33004KT 6000 SCT018 29/23 Q1010|NOSIG=
Kualanamu International Airport - Deli Serdang (WIMM)METAR WIMM 230730Z 34010KT 9999 SCT018 30/25 Q1009|NOSIG=

*METAR resource from BMKG. This information may not be up to date.

VATSIM Indonesia vACC VATSIM South East Asia VATSIM Asia